www.pogodaiklimat.ru
ПОГОДА в Чимкургане

Архив погоды в Чимкургане (Джизакская область, Узбекистан)

Время
и дата
04:50 28.05
05:00 28.05
05:20 28.05
05:30 28.05
05:50 28.05
06:00 28.05
06:10 28.05
06:20 28.05
06:30 28.05
06:40 28.05
06:50 28.05
07:00 28.05
07:10 28.05
07:20 28.05
07:30 28.05
07:40 28.05
07:50 28.05
08:00 28.05
08:10 28.05
08:20 28.05
08:30 28.05
08:40 28.05
08:50 28.05
09:00 28.05
09:10 28.05
09:20 28.05
09:30 28.05
09:40 28.05
09:50 28.05
10:00 28.05
10:10 28.05
10:20 28.05
10:30 28.05
10:40 28.05
10:50 28.05
11:00 28.05
11:10 28.05
11:20 28.05
11:30 28.05
11:40 28.05
11:50 28.05
12:00 28.05
12:10 28.05
12:20 28.05
12:30 28.05
13:00 28.05
13:10 28.05
13:20 28.05
13:30 28.05
13:40 28.05
13:50 28.05
14:00 28.05
14:20 28.05
14:30 28.05
14:40 28.05
14:50 28.05
15:00 28.05
15:10 28.05
15:20 28.05
15:30 28.05
15:40 28.05
15:50 28.05
16:00 28.05
16:10 28.05
16:20 28.05
16:30 28.05
16:40 28.05
17:00 28.05
17:20 28.05
17:30 28.05
17:40 28.05
17:50 28.05
18:00 28.05
18:10 28.05
18:20 28.05
18:30 28.05
18:40 28.05
18:50 28.05
19:00 28.05
19:20 28.05
19:30 28.05
19:40 28.05
19:50 28.05
20:00 28.05
20:20 28.05
20:30 28.05
20:40 28.05
20:50 28.05
21:00 28.05
21:10 28.05
21:20 28.05
21:30 28.05
21:40 28.05
21:50 28.05
22:10 28.05
22:20 28.05
22:30 28.05
22:40 28.05
22:50 28.05
23:00 28.05
23:10 28.05
23:20 28.05
23:50 28.05
00:00 29.05
00:10 29.05
00:20 29.05
00:30 29.05
00:40 29.05
01:00 29.05
01:10 29.05
01:20 29.05
01:30 29.05
01:40 29.05
01:50 29.05
02:10 29.05
02:30 29.05
02:40 29.05
02:50 29.05
03:00 29.05
03:20 29.05
03:30 29.05
03:50 29.05
04:00 29.05
04:10 29.05
04:30 29.05
04:40 29.05
04:50 29.05
05:00 29.05
05:10 29.05
05:20 29.05
05:30 29.05
05:40 29.05
06:00 29.05
06:10 29.05
06:20 29.05
06:30 29.05
06:50 29.05
07:00 29.05
07:10 29.05
07:20 29.05
07:30 29.05
07:40 29.05
07:50 29.05
08:00 29.05
Ветер
(напр.,м/с)
Видимость Явления Солнечная радиация
(Вт/м2)
Т
(С)
Тd
(С)
f
(%)
Тe
(С)
Тes
(С)
Комфортность P
(гПа)
Po
(гПа)
Тmin
(С)
Tmax
(С)
R
(мм)
СВ 0.7
{1.1}
+11.0 +11.0 100 +11 +11 1013.0 958.3 +11.1 +11.0
СВ 0.6
{1.0}
+10.9 +10.9 100 +11 +11 1013.0 958.3 +11.0 +10.9
СЗ 0.4
{0.8}
+11.0 +11.0 100 +12 +12 1013.1 958.4 +11.0 +10.9
СВ 0.3
{1.1}
+11.1 +11.1 100 +12 +12 1013.1 958.4 +11.1 +11.0
СВ 0.6
{1.2}
+11.9 +11.9 100 +12 +12 1013.3 958.6 +11.9 +11.2
СВ 0.8
{1.8}
+12.9 +12.9 100 +13 +13 1013.3 958.6 +12.9 +11.9
С 0.5
{0.9}
+13.7 +13.7 100 +15 +15 1013.4 958.7 +13.7 +12.9
СВ 0.4
{0.8}
+14.0 +14.0 100 +15 +15 1013.4 958.7 +14.0 +13.7
В 0.8
{1.3}
+14.1 +14.1 100 +15 +15 1013.4 958.7 +14.1 +13.9
В 1.1
{1.6}
+16.0 +16.0 100 +17 +17 1013.4 958.7 +16.0 +14.1
В 1.5
{3.1}
+17.7 +15.9 89 +18 +18 1013.4 958.7 +17.7 +16.0
В 1.6
{3.0}
+18.2 +14.7 80 +19 +19 1013.4 958.7 +18.2 +17.7
В 1.9
{3.1}
+18.1 +14.9 82 +19 +19 1013.4 958.7 +18.2 +18.1
СВ 1.6
{3.1}
+17.9 +14.5 81 +19 +19 1013.4 958.7 +18.1 +17.8
СВ 1.1
{2.2}
+18.7 +15.4 81 +21 +21 комфорт 1013.5 958.8 +18.7 +17.9
СВ 1.2
{2.4}
+19.6 +15.2 76 +23 +23 комфорт 1013.6 958.9 +19.5 +18.7
СВ 0.9
{1.8}
+20.8 +16.4 76 +25 +25 комфорт 1013.7 959.0 +20.7 +19.6
В 1.0
{2.2}
+21.4 +16.7 75 +25 +25 комфорт 1013.6 958.9 +21.5 +20.7
В 1.4
{2.6}
+21.5 +15.2 67 +25 +25 комфорт 1013.6 958.9 +21.6 +21.1
СВ 1.8
{2.8}
+21.8 +15.4 67 +25 +25 комфорт 1013.6 958.9 +21.9 +21.3
СВ 1.6
{3.0}
+21.6 +15.0 66 +25 +25 комфорт 1013.7 959.0 +21.8 +21.4
В 1.3
{2.1}
+21.5 +13.6 60 +24 +24 комфорт 1013.9 959.2 +21.6 +21.3
В 1.0
{1.9}
+22.6 +12.1 51 +25 +25 комфорт 1013.9 959.2 +22.6 +21.5
С 0.5
{1.4}
+23.6 +11.1 45 +25 +25 комфорт 1013.8 959.1 +23.7 +22.6
ЮЗ 0.4
{1.1}
+24.9 +10.8 41 +26 +26 жарко 1013.8 959.1 +24.9 +23.6
В 0.7
{1.4}
+25.7 +10.6 39 +27 +27 жарко 1013.7 959.0 +25.7 +24.9
СВ 0.7
{1.6}
+26.0 +8.8 34 +26 +26 жарко 1013.8 959.1 +26.0 +25.3
С 0.8
{1.8}
+26.4 +9.5 34 +27 +27 жарко 1013.8 959.1 +26.7 +26.0
СЗ 0.9
{1.8}
+26.7 +6.6 28 +26 +26 жарко 1013.8 959.1 +26.7 +26.0
С 0.8
{2.7}
+27.3 +8.6 31 +27 +27 жарко 1013.9 959.2 +27.5 +26.5
З 1.4
{3.4}
+27.9 +6.7 26 +27 +27 жарко 1014.0 959.3 +27.9 +27.1
З 1.8
{3.8}
+27.3 +6.4 26 +27 +27 жарко 1014.1 959.4 +27.9 +27.3
З 1.6
{3.7}
+27.7 +6.6 26 +27 +27 жарко 1014.1 959.4 +28.1 +27.2
СЗ 1.8
{3.4}
+28.0 +6.8 26 +27 +27 жарко 1014.0 959.3 +28.0 +27.6
З 1.6
{3.8}
+28.3 +6.3 25 +27 +27 жарко 1014.1 959.4 +28.8 +28.0
ЮЗ 2.1
{4.3}
+28.6 +7.5 27 +28 +28 жарко 1014.2 959.5 +29.0 +28.1
З 2.0
{4.6}
+28.3 +6.9 26 +28 +28 жарко 1014.2 959.5 +29.0 +28.2
З 2.3
{4.3}
+28.7 +7.9 27 +28 +28 жарко 1014.2 959.5 +29.0 +28.2
З 1.9
{5.2}
+29.1 +8.2 27 +29 +29 жарко 1014.2 959.5 +29.2 +28.2
ЮЗ 2.1
{4.9}
+29.0 +7.5 26 +28 +28 жарко 1014.2 959.5 +29.5 +28.9
З 1.7
{3.9}
+29.2 +7.1 25 +28 +28 жарко 1014.2 959.5 +29.4 +28.9
З 1.8
{5.6}
+29.3 +8.1 26 +29 +29 жарко 1014.2 959.5 +30.0 +29.1
З 2.1
{5.7}
+29.7 +8.0 26 +29 +29 жарко 1014.2 959.5 +29.9 +29.0
СЗ 1.6
{4.9}
+29.9 +7.7 25 +29 +29 жарко 1014.2 959.5 +30.4 +28.9
З 2.3
{4.6}
+29.9 +5.8 22 +28 +28 жарко 1014.1 959.4 +30.4 +29.7
З 2.4
{6.3}
+30.4 +6.0 22 +29 +29 жарко 1014.0 959.3 +30.8 +30.1
З 1.7
{4.5}
+30.7 +6.7 22 +29 +29 жарко 1014.0 959.3 +30.8 +30.1
З 2.7
{5.5}
+30.3 +4.4 19 +28 +28 жарко 1013.9 959.2 +30.9 +30.1
З 2.1
{4.8}
+30.4 +4.3 19 +28 +28 жарко 1013.9 959.2 +30.8 +30.1
З 2.1
{4.4}
+30.8 +5.5 20 +29 +29 жарко 1013.9 959.2 +30.8 +30.2
СЗ 2.1
{5.3}
+30.8 +3.1 17 +28 +28 жарко 1013.8 959.1 +31.1 +30.6
З 1.6
{4.1}
+31.3 +3.9 18 +29 +29 жарко 1013.8 959.1 +31.4 +30.3
СВ 1.6
{3.8}
+30.9 +1.7 15 +28 +28 жарко 1013.5 958.8 +31.4 +30.3
З 1.8
{4.4}
+31.4 +4.2 18 +29 +29 жарко 1013.4 958.7 +31.7 +30.9
ЮЗ 1.3
{2.9}
+31.7 +6.7 21 +30 +30 жарко 1013.4 958.7 +32.1 +31.4
СЗ 1.3
{3.9}
+31.4 +5.8 20 +30 +30 жарко 1013.2 958.5 +31.9 +30.8
З 1.2
{2.8}
+32.4 +7.6 22 +31 +31 жарко 1013.0 958.4 +32.4 +31.3
СЗ 2.4
{5.2}
+30.8 +5.0 20 +29 +29 жарко 1012.9 958.3 +32.5 +30.8
ЮВ 1.8
{4.6}
+31.8 +5.3 19 +30 +30 жарко 1012.9 958.3 +31.9 +30.6
СЗ 1.9
{4.4}
+32.0 +7.5 22 +31 +31 жарко 1012.8 958.2 +31.9 +31.3
СВ 2.8
{6.3}
+30.8 +5.6 21 +29 +29 жарко 1012.8 958.2 +32.0 +30.7
В 1.5
{4.1}
+31.2 +3.7 18 +29 +29 жарко 1012.8 958.2 +31.4 +30.6
С 1.3
{4.1}
+31.7 +6.5 21 +30 +30 жарко 1012.7 958.1 +32.0 +31.0
СЗ 2.7
{6.9}
+31.6 +5.3 19 +30 +30 жарко 1012.6 958.0 +32.0 +31.5
З 2.4
{4.8}
+31.5 +5.7 20 +30 +30 жарко 1012.6 958.0 +31.9 +31.4
СЗ 2.4
{7.5}
+31.4 +7.5 23 +30 +30 жарко 1012.5 957.9 +31.7 +31.2
СЗ 3.3
{8.0}
+31.2 +7.5 23 +30 +30 жарко 1012.5 957.9 +31.6 +30.8
СЗ 3.2
{7.4}
+30.7 +7.5 23 +29 +29 жарко 1012.4 957.8 +31.0 +30.7
СЗ 3.9
{8.8}
+30.5 +7.5 24 +29 +29 жарко 1012.3 957.7 +30.8 +30.2
СЗ 3.5
{9.6}
+30.2 +7.8 25 +29 +29 жарко 1012.3 957.7 +30.5 +30.0
СЗ 3.7
{8.5}
+30.0 +6.8 23 +29 +29 жарко 1012.2 957.6 +30.3 +29.9
СЗ 3.4
{6.7}
+29.8 +6.7 23 +29 +29 жарко 1012.1 957.5 +30.1 +29.8
СЗ 3.8
{8.5}
+29.6 +6.6 24 +28 +28 жарко 1012.0 957.4 +29.8 +29.5
СЗ 3.0
{6.7}
+29.7 +7.7 25 +29 +29 жарко 1011.8 957.2 +29.8 +29.6
С 1.6
{3.9}
+30.0 +8.1 25 +29 +29 жарко 1011.8 957.2 +30.0 +29.7
СВ 1.8
{5.2}
+29.3 +8.6 27 +29 +29 жарко 1011.8 957.2 +30.2 +29.3
СВ 3.5
{7.6}
+28.7 +9.0 29 +28 +28 жарко 1012.0 957.4 +29.3 +28.7
СВ 3.1
{5.9}
+28.5 +7.7 27 +28 +28 жарко 1012.1 957.5 +28.8 +28.5
СВ 3.3
{7.7}
+27.9 +7.5 28 +27 +27 жарко 1012.3 957.7 +28.5 +27.9
СВ 3.7
{6.9}
+26.8 +7.0 28 +26 +26 жарко 1012.5 957.9 +27.4 +26.8
СВ 3.4
{6.3}
+26.4 +6.4 28 +26 +26 жарко 1012.6 958.0 +26.8 +26.4
С 3.1
{6.4}
+25.7 +6.0 28 +25 +25 комфорт 1012.7 958.1 +26.4 +25.8
С 3.0
{5.6}
+25.4 +5.9 29 +25 +25 комфорт 1012.8 958.2 +25.8 +25.4
С 2.8
{5.8}
+25.0 +5.9 29 +25 +25 комфорт 1012.8 958.2 +25.4 +24.9
С 2.7
{6.4}
+24.4 +6.2 31 +24 +24 комфорт 1012.9 958.3 +24.7 +24.4
С 2.7
{5.8}
+24.1 +6.1 31 +24 +24 комфорт 1013.0 958.4 +24.5 +24.1
С 2.6
{4.6}
+23.7 +6.2 32 +24 +24 комфорт 1013.2 958.5 +24.1 +23.7
С 2.3
{4.8}
+23.4 +6.0 32 +24 +24 комфорт 1013.2 958.5 +23.8 +23.4
С 2.7
{5.6}
+23.3 +6.2 33 +24 +24 комфорт 1013.2 958.5 +23.4 +23.2
С 2.8
{5.5}
+23.4 +6.2 33 +24 +24 комфорт 1013.3 958.6 +23.4 +23.2
С 2.8
{5.9}
+23.4 +6.1 33 +24 +24 комфорт 1013.4 958.7 +23.4 +23.2
С 2.6
{5.6}
+23.2 +6.4 34 +24 +24 комфорт 1013.4 958.7 +23.5 +23.2
С 1.7
{3.9}
+22.8 +6.0 34 +23 +23 комфорт 1013.6 958.9 +23.2 +22.8
СВ 1.4
{3.3}
+22.2 +6.1 35 +23 +23 комфорт 1013.7 959.0 +22.8 +22.2
СЗ 0.7
{1.5}
+20.6 +8.0 44 +23 +23 комфорт 1013.8 959.1 +21.4 +20.6
СЗ 1.1
{1.6}
+19.8 +7.2 44 +22 +22 комфорт 1013.8 959.1 +20.6 +19.8
С 0.7
{1.2}
+19.1 +8.4 50 +21 +21 комфорт 1013.8 959.1 +19.8 +19.1
СВ 0.9
{1.2}
+18.4 +7.4 48 +20 +20 1013.7 959.0 +19.1 +18.4
СВ 0.7
{1.2}
+18.0 +8.0 52 +19 +19 1013.6 958.9 +18.4 +18.1
С 0.8
{1.2}
+17.5 +8.2 54 +19 +19 1013.6 958.9 +18.0 +17.5
С 0.7
{1.1}
+17.1 +8.3 56 +18 +18 1013.5 958.8 +17.6 +17.1
В 0.3
{0.6}
+16.8 +9.6 63 +19 +19 1013.5 958.8 +17.2 +16.8
ЮЗ 0.7
{0.8}
+15.9 +9.0 64 +17 +17 1013.6 958.9 +16.1 +15.9
Ю 0.3
{0.7}
+15.5 +10.1 70 +17 +17 1013.6 958.9 +15.9 +15.5
ЮВ 0.7
{1.1}
+15.3 +9.5 68 +16 +16 1013.6 958.9 +15.5 +15.2
ЮЗ 0.5
{0.8}
+15.1 +9.8 71 +16 +16 1013.5 958.8 +15.3 +15.1
З 0.3
{0.6}
+15.0 +9.4 69 +17 +17 1013.4 958.7 +15.1 +14.8
Ю 0.5
{1.0}
+14.7 +10.8 77 +16 +16 1013.3 958.6 +15.0 +14.7
ЮЗ 0.5
{0.9}
+14.4 +9.6 73 +16 +16 1013.1 958.4 +14.5 +14.3
СЗ 0.4
{1.2}
+14.1 +10.0 76 +15 +15 1013.1 958.4 +14.4 +14.1
СВ 0.4
{0.8}
+14.0 +9.5 74 +15 +15 1013.1 958.4 +14.1 +14.0
ЮВ 0.7
{1.6}
+14.1 +10.8 81 +15 +15 1013.0 958.3 +14.1 +13.9
ЮВ 0.6
{1.8}
+13.7 +10.6 82 +15 +15 1013.0 958.3 +14.1 +13.7
ЮЗ 0.4
{1.3}
+13.7 +10.3 80 +15 +15 1013.0 958.3 +13.8 +13.6
С 0.4
{0.9}
+13.4 +10.4 82 +15 +15 1013.0 958.3 +13.6 +13.3
СВ 0.8
{1.0}
+13.1 +11.2 88 +13 +13 1013.1 958.4 +13.2 +13.1
В 0.7
{1.0}
+13.2 +12.0 92 +14 +14 1013.0 958.3 +13.2 +13.1
СВ 0.5
{0.7}
+13.1 +12.7 97 +14 +14 1013.1 958.4 +13.2 +13.1
С 1.0
{1.5}
+13.0 +12.6 98 +13 +13 1013.0 958.3 +13.1 +13.0
С 0.5
{1.0}
+13.0 +12.4 96 +14 +14 1013.1 958.4 +13.2 +13.0
В 0.4
{0.8}
+12.9 +11.6 92 +14 +14 1013.2 958.5 +13.1 +12.9
СВ 0.9
{1.4}
+12.7 +11.2 91 +13 +13 1013.2 958.5 +12.7 +12.6
СВ 0.7
{1.3}
+12.7 +10.7 88 +13 +13 1013.2 958.5 +12.8 +12.6
СВ 0.7
{1.3}
+12.7 +10.7 88 +13 +13 1013.2 958.5 +12.7 +12.6
ЮВ 0.8
{1.5}
+12.5 +10.8 89 +13 +13 1013.2 958.5 +12.7 +12.5
ЮВ 0.5
{1.6}
+12.6 +11.1 91 +13 +13 1013.3 958.6 +12.6 +12.5
Ю 1.5
{2.4}
+12.5 +11.5 94 +12 +12 1013.3 958.6 +12.8 +12.5
В 1.4
{2.6}
+12.6 +11.6 94 +12 +12 1013.4 958.7 +12.7 +12.4
С 0.8
{1.8}
+12.7 +12.0 96 +13 +13 1013.5 958.8 +12.7 +12.5
Ю 0.9
{1.8}
+12.4 +12.1 98 +12 +12 1013.5 958.8 +12.7 +12.4
В 1.0
{1.7}
+12.2 +12.2 100 +12 +12 1013.5 958.8 +12.4 +12.1
СВ 0.8
{1.7}
+12.5 +12.5 100 +13 +13 1013.6 958.9 +12.5 +12.2
В 0.6
{1.3}
+14.0 +14.0 100 +15 +15 1013.8 959.1 +13.9 +13.1
ЮВ 0.5
{1.3}
+14.8 +14.0 95 +16 +16 1013.8 959.1 +14.8 +14.0
СВ 0.8
{1.4}
+16.1 +14.1 88 +17 +17 1013.9 959.2 +16.1 +14.8
СВ 0.8
{1.8}
+17.0 +13.6 81 +18 +18 1014.0 959.3 +17.0 +16.1
Ю 0.3
{0.8}
+18.5 +13.9 75 +21 +21 комфорт 1014.0 959.3 +18.5 +17.8
ЮЗ 0.6
{1.3}
+19.0 +14.0 73 +22 +22 комфорт 1014.1 959.4 +19.0 +18.5
ЮЗ 0.4
{1.0}
+19.4 +14.1 71 +23 +23 комфорт 1014.1 959.4 +19.4 +19.0
СВ 0.7
{1.8}
+20.0 +13.9 68 +23 +23 комфорт 1014.2 959.5 +20.1 +19.4
СВ 0.9
{1.6}
+20.8 +14.8 69 +25 +25 комфорт 1014.3 959.6 +20.8 +20.0
В 1.2
{3.0}
+21.1 +12.9 60 +23 +23 комфорт 1014.3 959.6 +21.1 +20.8
В 1.4
{2.5}
+21.6 +13.8 61 +24 +24 комфорт 1014.3 959.6 +21.7 +21.1
СВ 1.1
{2.2}
+22.1 +12.3 54 +25 +25 комфорт 1014.3 959.6 +22.2 +21.6
Местоположение метеостанции Чимкурган (Джизакская область, Узбекистан): широта 38.83 долгота 65.37 высота над уровнем моря 0 м.
В архиве по умолчанию представлена погода в Чимкургане за последние 1-2 суток. Обновление информации о фактической погоде в базе происходит ежечасно! Архивные данные за месяц целиком и за предыдущие месяцы Вы можете получить, выбрав интересующий диапазон дат из раскрывающегося списка и нажав кнопку "Ввод!".
*Определитесь, кто Вы:
Внимание! Время в таблицах - местное (без учета летнего времени). Для получения всемирного времени необходимо вычесть поправку, которая равна 5 ч.
Смотрите также архив погоды на ближайших метеорологических станциях:
Партнеры нашего сайта:      
Пояснения к столбцам:
  • Ветер - указаны скорость ветра в м/с - средняя за 10 мин, порывы в срок и между сроками (в фигурных скобках) и направление, откуда дует ветер: С - северный,
  • СВ - северо-восточный, В - восточный, ЮВ - юго-восточный, Ю - южный, ЮЗ - юго-западный, З - западный, СЗ - северо-западный.
  • Видимость - горизонтальная дальность видимости в метрах или километрах. При видимости от 1 до 10 км при отсутствии осадков обычно наблюдается дымка, при ухудшении видимости до 1 км и менее - туман. В сухую погоду видимость может ухудшаться дымом, пылью или мглою.
  • Явления - указаны атмосферные явления, наблюдавшиеся в срок или в последний час перед сроком.
  • Солнечная радиация - мощность потока солнечного излучения на поверхность земли и предметов в Вт/м2.
  • T - Температура воздуха - температура, измеренная на высоте 2 м над землей.
  • Td - Температура точки росы - температура, при понижении до которой содержащийся в воздухе водяной пар достигнет насыщения.
  • f - Относительная влажность воздуха - влажноcть воздуха, измеренная на высоте 2 м над землей.
  • Te - Эффективная температура - температура, которую ощущает одетый по сезону человек в тени. Характеристика душности погоды. При расчете учитывается влияние влажности воздуха и скорости ветра на теплоощущения человека.
  • Tes - Эффективная температура на солнце - температура, которую ощущает человек, с поправкой на солнечный нагрев. Характеристика знойности погоды. Зависит от высоты солнца над горизонтом, облачности и скорости ветра. Ночью, в пасмурную погоду, а также при ветре 12 м/с и более поправка равна нулю.
  • P - Атмосферное давление - приведенное к уровню моря атмосферное давление.
  • Po - Атмосферное давление - измеренное на уровне метеостанции атмосферное давление.
  • Tmin - Минимальная температура - минимум температуры воздуха на высоте 2 м над землей.
  • Tmax - Максимальная температура - максимум температуры воздуха на высоте 2 м над землей.
  • R - Количество осадков - Количество выпавших осадков за период времени, мм. При наведении курсора мыши на число - период времени, за который выпало указанное количество осадков.